NOAA 16 DEB

Satellite information

Favourite Embed

Satellite Type and Status

DEBRISIN ORBIT

Key statistics

Satellite NOAA 16 DEB at a glance.

Uptime

9215

Days in orbit

Revolutions

≈ 14.4

Per day

Orbit

SSO

Sun Synchronous Orbit

Inclination

98.8

Latest

Satellite identification and parameters

Extended collection of information and parameters for NOAA 16 DEB.

Object identification

Identified? True

Debris? True

Object name: NOAA 16 DEB

International designator: 2000-055CK

Object number (NORAD): 41152

Object ID (CCSDS): 41152

Country: UNITED STATES OF AMERICA (US)

Current information (Y/N): Y

RCS size: SMALL

Orbital parameters

Period: 100.314 minutes

Inclination: 98.8265 deg

SMA: 7151.557 km

Apoapsis: 780.13 km

Periapsis: 766.715 km

RAAN: 98.5083 deg

Eccentricy: 0.0009379

Argument of periapsis: 19.3868 deg

Mean anomaly: 340.7671 deg

Mean motion: 14.35495503 rev/day

Mean motion (dot): 0.00008525 rev/day2

B* drag term: 0.0029751 1/REarth

Two-line elements (TLE)

Creation date: Dec. 9, 2025, 11:46 p.m.

Reference frame: TEME

Reference center: EARTH

Epoch: Dec. 9, 2025, 2:24 p.m. UTC

TLE line 0: 0 NOAA 16 DEB

TLE line 1: 1 41152U 00055CK 25343.60012514 .00008525 00000-0 29751-2 0 9995

TLE line 2: 2 41152 98.8265 98.5083 0009379 19.3868 340.7671 14.35495503519449

Live tracking on map

Real-time ground track for satellite NOAA 16 DEB.

In-orbit conjunctions

A list of the most updated potential collisions computed for object NOAA 16 DEB.

Target Orbit TCA Probability of collision Miss distance Type
SL-8 R/B LEO 2025-11-04 16:45:22 0.000124851 384.0 (m) ROCKET BODY
COSMOS 1023 LEO 2025-10-06 20:32:53 0.0001229842 162.0 (m) PAYLOAD
FENGYUN 1C DEB SSO 2025-07-25 05:40:55 0.0001034335 60.0 (m) DEBRIS
RESURS O1-N4 SSO 2024-05-27 02:17:23 0.0002175115 199.0 (m) PAYLOAD

Associated space launch

The NOAA K, L and M POES satellites begin the fifth generation of improved environmental monitoring in support of NOAA missions. The instrument payload has significant improvements and additions/deletions. The instrument changes have effected the spacecraft subsystems and data formats.

NOAA 16 DEB was lifted into orbit during the mission ‘Titan II SLV | NOAA 16’, on board a Titan II SLV space rocket.

The launch took place on Sept. 21, 2000, 10:22 a.m. from Space Launch Complex 4W.

For more information about the launch, click the button.

Launch to space Titan II SLV | NOAA 16
Titan II SLV | NOAA 16

Agency: N/A

Status: Launch Successful

Launch date: Sept. 21, 2000, 10:22 a.m. UTC

Rocket: Titan II SLV

Launch pad: Space Launch Complex 4W

Location: Vandenberg SFB, CA, USA

...

Latest news about this satellite

There are no fresh news available about this satellite. Check back as we update our databases every day.


Newsletter sign-up

Weekly statistics, charts and insights to help you stay on top of the space industry.